DEFRE EDDC-LIEE

Flight info

Callsign DEFRE
Flight time 1h 55m
Altitude 43000
Route MAREM8E MAREM DCT BUDEX DCT TIVAP/N0488F410 DCT URAVA/N0489F430 DCT TIBRO/N0487F410 DCT ROSKA DCT TULIK DCT SUKOM DCT OMAKU DCT AMTEL DCT TAQ DCT TINTO DCT ALG DCT KOVAS
Aircraft C750/M-SBDE3FGHRWXY/S

Departure

Time 2026-04-27 16:49
Airport Dresden Airport (EDDC)

Arrival

Time 2026-04-27 18:44
Airport Cagliari Elmas Airport (LIEE)
Time Latitude Longitude Altitude Speed Heading
2026-04-27 16:14 51.12476 13.76078 751 ft 0 kts 311°
2026-04-27 16:46 51.12488 13.76055 751 ft 5 kts 311°
2026-04-27 16:47 51.12567 13.76052 749 ft 13 kts 341°
2026-04-27 16:47 51.12606 13.76003 748 ft 3 kts 308°
2026-04-27 16:47 51.12618 13.75979 747 ft 0 kts 308°
2026-04-27 16:47 51.12619 13.75978 747 ft 0 kts 309°
2026-04-27 16:48 51.12634 13.75952 747 ft 5 kts 312°
2026-04-27 16:48 51.12675 13.75876 746 ft 15 kts 308°
2026-04-27 16:48 51.12838 13.75977 743 ft 61 kts 43°
2026-04-27 16:49 51.14283 13.77997 978 ft 185 kts 41°
2026-04-27 16:49 51.15241 13.79411 1615 ft 194 kts 40°
2026-04-27 16:49 51.16312 13.80864 1767 ft 195 kts 38°
2026-04-27 16:49 51.17323 13.82256 1801 ft 188 kts 39°
2026-04-27 16:50 51.18298 13.83610 1797 ft 184 kts 39°
2026-04-27 16:50 51.19264 13.84954 1791 ft 182 kts 39°
2026-04-27 16:50 51.20048 13.86492 1755 ft 186 kts 69°
2026-04-27 16:50 51.20018 13.88578 1694 ft 192 kts 105°
2026-04-27 16:51 51.19442 13.90582 1943 ft 212 kts 122°
2026-04-27 16:51 51.18483 13.92227 2998 ft 200 kts 140°
2026-04-27 16:51 51.17533 13.93696 3865 ft 193 kts 114°
2026-04-27 16:51 51.17133 13.95716 4541 ft 197 kts 107°
2026-04-27 16:52 51.16489 13.97648 5265 ft 202 kts 126°
2026-04-27 16:52 51.15608 13.99379 6078 ft 201 kts 130°
2026-04-27 16:52 51.14684 14.01009 6774 ft 205 kts 133°
2026-04-27 16:52 51.13589 14.02852 6569 ft 252 kts 133°
2026-04-27 16:53 51.12327 14.04941 6608 ft 275 kts 133°
2026-04-27 16:53 51.10975 14.07164 6931 ft 282 kts 133°
2026-04-27 16:53 51.09594 14.09434 7367 ft 283 kts 133°
2026-04-27 16:53 51.08227 14.11638 7738 ft 287 kts 137°
2026-04-27 16:54 51.06406 14.13099 7736 ft 300 kts 171°
2026-04-27 16:54 51.04348 14.12793 7799 ft 306 kts 202°
2026-04-27 16:54 51.02652 14.10832 7909 ft 305 kts 233°
2026-04-27 16:54 51.01353 14.08127 7991 ft 310 kts 227°
2026-04-27 16:55 50.99815 14.05748 8211 ft 310 kts 227°
2026-04-27 16:55 50.98292 14.03376 8412 ft 310 kts 225°
2026-04-27 16:55 50.96740 14.01008 8589 ft 311 kts 226°
2026-04-27 16:55 50.95167 13.98610 8760 ft 311 kts 226°
2026-04-27 16:56 50.93614 13.96242 8911 ft 312 kts 226°
2026-04-27 16:56 50.92037 13.93845 9057 ft 313 kts 226°
2026-04-27 16:56 50.90475 13.91469 9196 ft 314 kts 226°
2026-04-27 16:56 50.88897 13.89074 9336 ft 315 kts 226°
2026-04-27 16:57 50.87317 13.86678 9455 ft 316 kts 226°
2026-04-27 16:57 50.85739 13.84288 9583 ft 316 kts 226°
2026-04-27 16:57 50.84143 13.81871 9704 ft 316 kts 226°
2026-04-27 16:57 50.82561 13.79480 9816 ft 317 kts 226°
2026-04-27 16:58 50.80978 13.77088 9927 ft 317 kts 226°
2026-04-27 16:58 50.79378 13.74672 10041 ft 317 kts 226°
2026-04-27 16:58 50.77776 13.72255 10147 ft 318 kts 226°
2026-04-27 16:58 50.76171 13.69838 10247 ft 318 kts 226°
2026-04-27 16:59 50.74588 13.67455 10347 ft 318 kts 226°
2026-04-27 16:59 50.72960 13.65070 10412 ft 320 kts 221°
2026-04-27 16:59 50.70941 13.63641 10438 ft 327 kts 191°
2026-04-27 16:59 50.68676 13.63855 10472 ft 332 kts 164°
2026-04-27 17:00 50.64982 13.65579 10623 ft 331 kts 166°
2026-04-27 17:00 50.62026 13.66825 10691 ft 333 kts 167°
2026-04-27 17:00 50.59783 13.67755 10740 ft 334 kts 166°
2026-04-27 17:01 50.57541 13.68680 10816 ft 334 kts 167°
2026-04-27 17:01 50.55280 13.69616 10886 ft 334 kts 166°
2026-04-27 17:01 50.53040 13.70541 10934 ft 334 kts 167°
2026-04-27 17:01 50.50811 13.71460 10994 ft 334 kts 167°
2026-04-27 17:02 50.48554 13.72386 11133 ft 330 kts 167°
2026-04-27 17:02 50.46385 13.73275 11648 ft 311 kts 167°
2026-04-27 17:02 50.44363 13.74101 12074 ft 292 kts 167°
2026-04-27 17:02 50.42434 13.74882 12498 ft 289 kts 168°
2026-04-27 17:03 50.40473 13.75668 12797 ft 293 kts 168°
2026-04-27 17:03 50.38496 13.76455 13133 ft 294 kts 168°
2026-04-27 17:03 50.36499 13.77246 13438 ft 296 kts 168°
2026-04-27 17:03 50.34514 13.78097 13730 ft 298 kts 167°
2026-04-27 17:04 50.32496 13.78953 14049 ft 297 kts 168°
2026-04-27 17:04 50.30522 13.79774 14251 ft 298 kts 168°
2026-04-27 17:04 50.28505 13.80601 14421 ft 299 kts 168°
2026-04-27 17:04 50.26525 13.81413 14900 ft 285 kts 168°
2026-04-27 17:05 50.24670 13.82171 15300 ft 274 kts 169°
2026-04-27 17:05 50.22829 13.82918 15419 ft 276 kts 168°
2026-04-27 17:05 50.20945 13.83681 15498 ft 278 kts 168°
2026-04-27 17:05 50.19086 13.84435 15577 ft 277 kts 168°
2026-04-27 17:06 50.17195 13.85203 15619 ft 284 kts 169°
2026-04-27 17:06 50.15246 13.85992 16123 ft 294 kts 168°
2026-04-27 17:06 50.13303 13.86785 17068 ft 290 kts 168°
2026-04-27 17:06 50.11394 13.87560 17985 ft 287 kts 169°
2026-04-27 17:07 50.09454 13.88348 18715 ft 290 kts 169°
2026-04-27 17:07 50.07397 13.89168 18739 ft 319 kts 169°
2026-04-27 17:07 50.05183 13.90059 18812 ft 344 kts 168°
2026-04-27 17:07 50.02754 13.91037 18845 ft 374 kts 168°
2026-04-27 17:08 50.00149 13.92089 18929 ft 400 kts 168°
2026-04-27 17:08 49.97365 13.93210 19003 ft 424 kts 168°
2026-04-27 17:08 49.94445 13.94389 19066 ft 447 kts 167°
2026-04-27 17:08 49.91369 13.95625 19432 ft 460 kts 167°
2026-04-27 17:09 49.88253 13.96878 20049 ft 466 kts 167°
2026-04-27 17:09 49.85131 13.98133 20705 ft 470 kts 168°
2026-04-27 17:09 49.81922 13.99414 21304 ft 475 kts 168°
2026-04-27 17:09 49.78721 14.00697 21834 ft 481 kts 168°
2026-04-27 17:10 49.75496 14.01981 22373 ft 486 kts 168°
2026-04-27 17:10 49.72178 14.03303 22944 ft 490 kts 168°
2026-04-27 17:10 49.68889 14.04613 23450 ft 495 kts 168°
2026-04-27 17:10 49.65557 14.05935 23999 ft 499 kts 168°
2026-04-27 17:11 49.62185 14.07274 24548 ft 503 kts 168°
2026-04-27 17:11 49.55404 14.09958 25589 ft 509 kts 168°
2026-04-27 17:11 49.51968 14.11312 26087 ft 513 kts 168°
2026-04-27 17:12 49.45025 14.14049 26996 ft 520 kts 168°
2026-04-27 17:12 49.41517 14.15433 27423 ft 524 kts 168°
2026-04-27 17:12 49.37964 14.16823 27837 ft 527 kts 169°
2026-04-27 17:13 49.34404 14.18220 28217 ft 531 kts 168°
2026-04-27 17:13 49.30839 14.19620 28624 ft 533 kts 168°
2026-04-27 17:13 49.27261 14.21198 29020 ft 538 kts 163°
2026-04-27 17:13 49.23701 14.23065 29397 ft 540 kts 166°
2026-04-27 17:14 49.20095 14.24310 29746 ft 538 kts 174°
2026-04-27 17:14 49.16344 14.25097 30079 ft 542 kts 174°
2026-04-27 17:14 49.12661 14.26126 30455 ft 543 kts 174°
2026-04-27 17:14 49.08857 14.26614 30748 ft 541 kts 182°
2026-04-27 17:15 49.05100 14.26393 31048 ft 540 kts 189°
2026-04-27 17:15 49.01333 14.25492 31308 ft 537 kts 196°
2026-04-27 17:15 48.98175 14.24188 31507 ft 534 kts 202°
2026-04-27 17:15 48.94763 14.22163 31639 ft 532 kts 208°
2026-04-27 17:16 48.91304 14.20178 31755 ft 537 kts 201°
2026-04-27 17:16 48.83811 14.18018 31998 ft 541 kts 192°
2026-04-27 17:16 48.80133 14.17042 32495 ft 536 kts 194°
2026-04-27 17:17 48.76461 14.16044 32807 ft 535 kts 195°
2026-04-27 17:17 48.72815 14.15003 32990 ft 536 kts 195°
2026-04-27 17:17 48.69120 14.13962 33127 ft 537 kts 195°
2026-04-27 17:18 48.58052 14.10838 33263 ft 540 kts 194°
2026-04-27 17:18 48.50656 14.08756 33345 ft 541 kts 194°
2026-04-27 17:19 48.47001 14.07733 33872 ft 534 kts 195°
2026-04-27 17:19 48.43375 14.06718 34209 ft 533 kts 195°
2026-04-27 17:19 48.39733 14.05696 34379 ft 534 kts 195°
2026-04-27 17:19 48.36058 14.04669 34461 ft 536 kts 195°
2026-04-27 17:20 48.28767 14.02634 34594 ft 537 kts 195°
2026-04-27 17:20 48.25042 14.01599 34758 ft 534 kts 194°
2026-04-27 17:20 48.21476 14.00612 35601 ft 521 kts 195°
2026-04-27 17:21 48.17890 13.99614 36063 ft 519 kts 195°
2026-04-27 17:21 48.14359 13.98635 36281 ft 521 kts 195°
2026-04-27 17:21 48.10757 13.97638 36410 ft 525 kts 195°
2026-04-27 17:21 48.07151 13.96644 36590 ft 527 kts 195°
2026-04-27 17:22 48.03541 13.95648 36750 ft 528 kts 195°
2026-04-27 17:22 47.99948 13.94657 36929 ft 529 kts 194°
2026-04-27 17:22 47.96292 13.93650 37072 ft 530 kts 194°
2026-04-27 17:22 47.92686 13.92661 37203 ft 530 kts 194°
2026-04-27 17:23 47.85440 13.90674 37283 ft 532 kts 194°
2026-04-27 17:23 47.78192 13.88694 37344 ft 533 kts 194°
2026-04-27 17:24 47.74550 13.87704 38011 ft 524 kts 194°
2026-04-27 17:24 47.71004 13.86736 38265 ft 524 kts 194°
2026-04-27 17:24 47.67390 13.85753 38393 ft 526 kts 194°
2026-04-27 17:24 47.63804 13.84777 38458 ft 527 kts 194°
2026-04-27 17:25 47.56580 13.82821 38650 ft 527 kts 194°
2026-04-27 17:25 47.53055 13.81872 39634 ft 511 kts 194°
2026-04-27 17:25 47.49565 13.80926 40053 ft 509 kts 194°
2026-04-27 17:26 47.46120 13.79996 40406 ft 506 kts 194°
2026-04-27 17:26 47.42688 13.79072 40724 ft 503 kts 194°
2026-04-27 17:26 47.39268 13.78151 41045 ft 500 kts 194°
2026-04-27 17:26 47.35852 13.77234 41229 ft 500 kts 194°
2026-04-27 17:27 47.32424 13.76316 41411 ft 500 kts 194°
2026-04-27 17:27 47.29005 13.75398 41592 ft 500 kts 194°
2026-04-27 17:27 47.25571 13.74480 41767 ft 500 kts 194°
2026-04-27 17:27 47.22132 13.73559 41942 ft 500 kts 194°
2026-04-27 17:28 47.18749 13.72659 42124 ft 499 kts 194°
2026-04-27 17:28 47.15351 13.71754 42302 ft 498 kts 194°
2026-04-27 17:28 47.08574 13.69950 42654 ft 497 kts 194°
2026-04-27 17:29 47.05187 13.69051 42837 ft 495 kts 194°
2026-04-27 17:29 47.01782 13.68146 43014 ft 494 kts 194°
2026-04-27 17:29 46.98459 13.67266 43181 ft 493 kts 194°
2026-04-27 17:29 46.95074 13.66374 43352 ft 491 kts 194°
2026-04-27 17:30 46.91697 13.65481 43523 ft 490 kts 194°
2026-04-27 17:30 46.85024 13.63719 43841 ft 486 kts 194°
2026-04-27 17:30 46.81711 13.62849 43998 ft 484 kts 194°
2026-04-27 17:31 46.78421 13.61982 44150 ft 482 kts 194°
2026-04-27 17:31 46.75137 13.61124 44307 ft 480 kts 194°
2026-04-27 17:31 46.71856 13.60265 44465 ft 477 kts 194°
2026-04-27 17:31 46.68562 13.59401 44620 ft 475 kts 194°
2026-04-27 17:32 46.65335 13.58560 44779 ft 472 kts 194°
2026-04-27 17:32 46.58921 13.56883 45085 ft 466 kts 194°
2026-04-27 17:32 46.55742 13.56053 45252 ft 463 kts 194°
2026-04-27 17:33 46.52552 13.55226 45428 ft 460 kts 194°
2026-04-27 17:33 46.49424 13.54411 45603 ft 456 kts 194°
2026-04-27 17:33 46.46333 13.53608 45788 ft 453 kts 194°
2026-04-27 17:33 46.43255 13.52812 45968 ft 449 kts 194°
2026-04-27 17:34 46.40205 13.52019 46133 ft 446 kts 194°
2026-04-27 17:34 46.34099 13.50441 46335 ft 443 kts 194°
2026-04-27 17:34 46.31071 13.49660 46442 ft 441 kts 194°
2026-04-27 17:35 46.28031 13.48874 46557 ft 438 kts 194°
2026-04-27 17:35 46.25032 13.48103 46672 ft 436 kts 194°
2026-04-27 17:35 46.22102 13.47170 46768 ft 431 kts 201°
2026-04-27 17:35 46.19297 13.45669 46891 ft 424 kts 209°
2026-04-27 17:36 46.16710 13.43805 47022 ft 420 kts 210°
2026-04-27 17:36 46.14061 13.41950 47133 ft 418 kts 209°
2026-04-27 17:36 46.11446 13.40155 47248 ft 415 kts 210°
2026-04-27 17:36 46.08849 13.38374 47351 ft 413 kts 210°
2026-04-27 17:37 46.06235 13.36585 47463 ft 410 kts 210°
2026-04-27 17:37 46.01216 13.33154 47680 ft 404 kts 209°
2026-04-27 17:37 45.98705 13.31442 47795 ft 401 kts 209°
2026-04-27 17:38 45.96184 13.29725 47908 ft 398 kts 209°
2026-04-27 17:38 45.93708 13.28037 48021 ft 394 kts 209°
2026-04-27 17:38 45.91195 13.26327 48035 ft 394 kts 209°
2026-04-27 17:39 45.86255 13.22971 48044 ft 393 kts 209°
2026-04-27 17:39 45.81266 13.19591 48047 ft 392 kts 209°
2026-04-27 17:40 45.76359 13.16274 48179 ft 386 kts 209°
2026-04-27 17:40 45.71473 13.12970 47594 ft 403 kts 209°
2026-04-27 17:40 45.68918 13.11247 47113 ft 417 kts 209°
2026-04-27 17:41 45.66225 13.09433 46487 ft 433 kts 208°
2026-04-27 17:41 45.63477 13.07586 46318 ft 438 kts 208°
2026-04-27 17:41 45.60729 13.05742 46355 ft 439 kts 208°
2026-04-27 17:41 45.57906 13.03842 45277 ft 467 kts 208°
2026-04-27 17:42 45.54964 13.01871 45153 ft 470 kts 208°
2026-04-27 17:42 45.51976 12.99873 45049 ft 474 kts 208°
2026-04-27 17:42 45.48978 12.97868 45050 ft 476 kts 208°
2026-04-27 17:43 45.43007 12.93882 45041 ft 479 kts 208°
2026-04-27 17:43 45.36986 12.89814 45039 ft 480 kts 211°
2026-04-27 17:44 45.31586 12.84314 45050 ft 476 kts 226°
2026-04-27 17:44 45.27132 12.77382 45049 ft 474 kts 235°
2026-04-27 17:45 45.22802 12.70241 45051 ft 478 kts 231°
2026-04-27 17:45 45.18338 12.63274 45050 ft 481 kts 231°
2026-04-27 17:46 45.13820 12.56263 45049 ft 484 kts 231°
2026-04-27 17:46 45.09267 12.49220 45050 ft 486 kts 231°
2026-04-27 17:47 45.04660 12.42108 45048 ft 489 kts 231°
2026-04-27 17:47 45.00063 12.35029 45048 ft 491 kts 231°
2026-04-27 17:48 44.95386 12.27851 45053 ft 492 kts 230°
2026-04-27 17:48 44.90734 12.20729 45048 ft 494 kts 230°
2026-04-27 17:49 44.86061 12.13590 45047 ft 495 kts 230°
2026-04-27 17:49 44.81411 12.06505 45044 ft 495 kts 230°
2026-04-27 17:50 44.76727 11.99386 45048 ft 496 kts 230°
2026-04-27 17:50 44.69700 11.88741 45037 ft 496 kts 230°
2026-04-27 17:51 44.64996 11.81640 45042 ft 496 kts 230°
2026-04-27 17:51 44.60306 11.74577 45038 ft 496 kts 230°
2026-04-27 17:52 44.55350 11.67820 45039 ft 500 kts 221°
2026-04-27 17:52 44.49394 11.62709 45044 ft 505 kts 208°
2026-04-27 17:53 44.43099 11.58439 45049 ft 505 kts 210°
2026-04-27 17:53 44.36800 11.54044 45053 ft 505 kts 210°
2026-04-27 17:54 44.30553 11.49683 45057 ft 505 kts 210°
2026-04-27 17:54 44.24233 11.45284 45073 ft 505 kts 210°
2026-04-27 17:55 44.17711 11.41540 45089 ft 510 kts 199°
2026-04-27 17:55 44.10701 11.39885 45086 ft 515 kts 187°
2026-04-27 17:56 44.03524 11.40305 45087 ft 521 kts 173°
2026-04-27 17:56 43.96529 11.42847 45097 ft 522 kts 168°
2026-04-27 17:57 43.89363 11.44768 45082 ft 521 kts 173°
2026-04-27 17:57 43.82236 11.46497 45083 ft 521 kts 173°
2026-04-27 17:58 43.75074 11.48218 45072 ft 522 kts 173°
2026-04-27 17:58 43.67952 11.49930 45078 ft 522 kts 173°
2026-04-27 17:59 43.60795 11.51643 45074 ft 522 kts 173°
2026-04-27 17:59 43.53644 11.53353 45075 ft 523 kts 173°
2026-04-27 18:00 43.46479 11.55061 45080 ft 522 kts 173°
2026-04-27 18:00 43.39359 11.56754 45077 ft 522 kts 173°
2026-04-27 18:01 43.32225 11.58446 45062 ft 523 kts 173°
2026-04-27 18:01 43.25050 11.60145 45072 ft 523 kts 173°
2026-04-27 18:02 43.17867 11.61500 45080 ft 520 kts 179°
2026-04-27 18:02 43.10688 11.62286 45084 ft 521 kts 178°
2026-04-27 18:03 43.03469 11.63180 45092 ft 521 kts 178°
2026-04-27 18:03 42.96255 11.64079 45090 ft 521 kts 178°
2026-04-27 18:04 42.89056 11.64973 45092 ft 521 kts 178°
2026-04-27 18:04 42.81832 11.65867 45100 ft 521 kts 178°
2026-04-27 18:05 42.74596 11.66762 45095 ft 521 kts 178°
2026-04-27 18:05 42.67414 11.67647 45097 ft 521 kts 178°
2026-04-27 18:06 42.60202 11.68535 45091 ft 521 kts 178°
2026-04-27 18:06 42.52942 11.69426 45089 ft 521 kts 178°
2026-04-27 18:07 42.45761 11.70304 45084 ft 522 kts 178°
2026-04-27 18:07 42.38536 11.71187 45075 ft 522 kts 178°
2026-04-27 18:08 42.31261 11.72062 45084 ft 521 kts 179°
2026-04-27 18:08 42.24080 11.71558 45077 ft 514 kts 194°
2026-04-27 18:09 42.17204 11.69105 45072 ft 509 kts 203°
2026-04-27 18:09 42.10942 11.64910 45086 ft 501 kts 218°
2026-04-27 18:10 42.05577 11.59002 45087 ft 498 kts 223°
2026-04-27 18:10 41.99942 11.53644 45075 ft 500 kts 217°
2026-04-27 18:11 41.94423 11.47920 45062 ft 498 kts 223°
2026-04-27 18:11 41.91708 11.44944 44259 ft 516 kts 223°
2026-04-27 18:11 41.88916 11.41884 43676 ft 522 kts 223°
2026-04-27 18:12 41.86108 11.38814 43416 ft 521 kts 223°
2026-04-27 18:12 41.83283 11.35731 43284 ft 518 kts 223°
2026-04-27 18:12 41.77705 11.29645 43168 ft 515 kts 222°
2026-04-27 18:13 41.72170 11.23624 43077 ft 513 kts 222°
2026-04-27 18:13 41.66588 11.17562 43077 ft 511 kts 222°
2026-04-27 18:14 41.61116 11.11637 43091 ft 510 kts 222°
2026-04-27 18:14 41.55600 11.05673 43082 ft 511 kts 222°
2026-04-27 18:15 41.50075 10.99714 43085 ft 510 kts 222°
2026-04-27 18:15 41.44511 10.93726 43082 ft 510 kts 222°
2026-04-27 18:16 41.38987 10.87796 43083 ft 510 kts 222°
2026-04-27 18:16 41.33445 10.81861 43080 ft 509 kts 222°
2026-04-27 18:17 41.27930 10.75968 43082 ft 509 kts 222°
2026-04-27 18:17 41.22419 10.70091 43080 ft 509 kts 222°
2026-04-27 18:18 41.16869 10.64185 43082 ft 509 kts 222°
2026-04-27 18:18 41.11363 10.58339 43073 ft 509 kts 222°
2026-04-27 18:19 41.05824 10.52472 43074 ft 508 kts 222°
2026-04-27 18:19 41.00308 10.46642 43076 ft 508 kts 222°
2026-04-27 18:20 40.94770 10.40803 43075 ft 508 kts 222°
2026-04-27 18:20 40.89191 10.34934 43071 ft 509 kts 222°
2026-04-27 18:21 40.83670 10.29136 43073 ft 508 kts 222°
2026-04-27 18:21 40.78091 10.23290 43074 ft 508 kts 222°
2026-04-27 18:22 40.72513 10.17460 43070 ft 507 kts 222°
2026-04-27 18:22 40.66956 10.11663 43068 ft 507 kts 222°
2026-04-27 18:23 40.61433 10.05916 43059 ft 507 kts 222°
2026-04-27 18:23 40.55906 10.00174 43008 ft 509 kts 222°
2026-04-27 18:24 40.53135 9.97301 42609 ft 519 kts 221°
2026-04-27 18:24 40.50293 9.94352 41760 ft 526 kts 221°
2026-04-27 18:24 40.47420 9.91381 41342 ft 527 kts 221°
2026-04-27 18:24 40.44529 9.88397 40986 ft 526 kts 221°
2026-04-27 18:25 40.41655 9.85429 40583 ft 528 kts 221°
2026-04-27 18:25 40.38790 9.82476 40182 ft 529 kts 221°
2026-04-27 18:25 40.35873 9.79470 39778 ft 529 kts 221°
2026-04-27 18:25 40.32996 9.76513 39379 ft 531 kts 221°
2026-04-27 18:26 40.30065 9.73501 38866 ft 533 kts 220°
2026-04-27 18:26 40.27144 9.70501 38279 ft 535 kts 220°
2026-04-27 18:26 40.24194 9.67477 37691 ft 534 kts 220°
2026-04-27 18:26 40.21291 9.64506 36899 ft 530 kts 220°
2026-04-27 18:27 40.18487 9.61641 35691 ft 515 kts 220°
2026-04-27 18:27 40.15709 9.58794 33635 ft 517 kts 220°
2026-04-27 18:27 40.12901 9.55926 30818 ft 525 kts 219°
2026-04-27 18:27 40.10091 9.53060 28672 ft 514 kts 219°
2026-04-27 18:28 40.07340 9.50259 26762 ft 500 kts 219°
2026-04-27 18:28 40.04650 9.47521 25233 ft 483 kts 218°
2026-04-27 18:28 40.02064 9.44892 23461 ft 469 kts 218°
2026-04-27 18:28 39.99545 9.42337 21698 ft 459 kts 218°
2026-04-27 18:29 39.97069 9.39838 20013 ft 449 kts 218°
2026-04-27 18:29 39.94650 9.37386 18362 ft 440 kts 218°
2026-04-27 18:29 39.92302 9.35009 16764 ft 431 kts 219°
2026-04-27 18:29 39.89983 9.32661 15191 ft 421 kts 218°
2026-04-27 18:30 39.87716 9.30367 13639 ft 413 kts 218°
2026-04-27 18:30 39.85500 9.28128 12158 ft 403 kts 218°
2026-04-27 18:30 39.83337 9.25945 10708 ft 393 kts 218°
2026-04-27 18:30 39.81260 9.23848 10153 ft 361 kts 218°
2026-04-27 18:31 39.79382 9.21953 10059 ft 323 kts 218°
2026-04-27 18:31 39.77696 9.20256 10043 ft 289 kts 218°
2026-04-27 18:31 39.76158 9.18707 9636 ft 275 kts 218°
2026-04-27 18:31 39.74723 9.17265 9525 ft 253 kts 218°
2026-04-27 18:32 39.73344 9.15879 9113 ft 245 kts 218°
2026-04-27 18:32 39.72020 9.14547 8578 ft 244 kts 218°
2026-04-27 18:32 39.70670 9.13188 8007 ft 244 kts 218°
2026-04-27 18:32 39.69328 9.11842 7487 ft 242 kts 218°
2026-04-27 18:33 39.68056 9.10567 7373 ft 222 kts 218°
2026-04-27 18:33 39.66889 9.09396 7296 ft 204 kts 218°
2026-04-27 18:33 39.65768 9.08274 6879 ft 205 kts 216°
2026-04-27 18:33 39.64530 9.07394 6468 ft 204 kts 199°
2026-04-27 18:34 39.63157 9.07013 6013 ft 203 kts 183°
2026-04-27 18:34 39.61739 9.07081 5628 ft 198 kts 177°
2026-04-27 18:34 39.60431 9.07143 5465 ft 185 kts 179°
2026-04-27 18:34 39.59140 9.07182 5046 ft 188 kts 179°
2026-04-27 18:35 39.57814 9.07215 4613 ft 190 kts 178°
2026-04-27 18:35 39.56500 9.07246 4219 ft 190 kts 178°
2026-04-27 18:35 39.55195 9.07279 3912 ft 185 kts 177°
2026-04-27 18:35 39.53958 9.07294 3857 ft 174 kts 182°
2026-04-27 18:36 39.52759 9.06916 3894 ft 179 kts 203°
2026-04-27 18:36 39.51699 9.06023 3904 ft 187 kts 218°
2026-04-27 18:36 39.50673 9.04982 3895 ft 191 kts 216°
2026-04-27 18:36 39.49589 9.03945 3886 ft 187 kts 216°
2026-04-27 18:37 39.48587 9.02993 3839 ft 170 kts 215°
2026-04-27 18:37 39.47667 9.02120 3848 ft 162 kts 215°
2026-04-27 18:37 39.46730 9.01238 3888 ft 170 kts 215°
2026-04-27 18:37 39.45743 9.00311 3896 ft 177 kts 215°
2026-04-27 18:38 39.44746 8.99371 3882 ft 179 kts 215°
2026-04-27 18:38 39.43732 8.98417 3889 ft 180 kts 215°
2026-04-27 18:38 39.42738 8.97482 3892 ft 171 kts 215°
2026-04-27 18:38 39.41819 8.96617 3706 ft 160 kts 215°
2026-04-27 18:39 39.40912 8.95764 3347 ft 162 kts 215°
2026-04-27 18:39 39.39996 8.94905 2991 ft 163 kts 215°
2026-04-27 18:39 39.39088 8.94052 2657 ft 162 kts 214°
2026-04-27 18:39 39.38155 8.93221 2317 ft 161 kts 206°
2026-04-27 18:40 39.37139 8.92817 2127 ft 144 kts 181°
2026-04-27 18:40 39.36224 8.92968 1980 ft 127 kts 154°
2026-04-27 18:40 39.35486 8.93629 1837 ft 134 kts 132°
2026-04-27 18:40 39.34842 8.94392 1986 ft 112 kts 137°
2026-04-27 18:41 39.34195 8.95087 1626 ft 129 kts 137°
2026-04-27 18:41 39.33535 8.95796 1625 ft 118 kts 137°
2026-04-27 18:41 39.32871 8.96499 1598 ft 127 kts 138°
2026-04-27 18:41 39.32212 8.97211 1763 ft 121 kts 135°
2026-04-27 18:42 39.31575 8.97967 1798 ft 127 kts 134°
2026-04-27 18:42 39.31128 8.98494 1776 ft 133 kts 135°
2026-04-27 18:42 39.30189 8.99584 1728 ft 143 kts 136°
2026-04-27 18:42 39.29438 9.00430 1139 ft 146 kts 137°
2026-04-27 18:43 39.28712 9.01295 628 ft 136 kts 138°
2026-04-27 18:43 39.28008 9.02109 475 ft 136 kts 138°
2026-04-27 18:43 39.27319 9.02920 362 ft 131 kts 140°
2026-04-27 18:43 39.26639 9.03706 219 ft 132 kts 140°
2026-04-27 18:44 39.25954 9.04499 41 ft 130 kts 140°
2026-04-27 18:44 39.25379 9.05160 17 ft 68 kts 138°
2026-04-27 18:44 39.25240 9.05319 17 ft 11 kts 136°
2026-04-27 18:44 39.25176 9.05397 17 ft 13 kts 137°
2026-04-27 18:45 39.25075 9.05514 17 ft 17 kts 138°
2026-04-27 18:45 39.25077 9.05663 17 ft 6 kts 60°
2026-04-27 18:45 39.25080 9.05669 17 ft 1 kts 61°
2026-04-27 18:45 39.25104 9.05724 17 ft 8 kts 59°
2026-04-27 18:46 39.25135 9.05793 17 ft 10 kts 62°
2026-04-27 18:46 39.25151 9.05883 17 ft 10 kts 132°
2026-04-27 18:46 39.25109 9.05942 17 ft 0 kts 130°
2026-04-27 18:46 39.25107 9.05945 17 ft 0 kts 130°
2026-04-27 18:47 39.25101 9.05954 17 ft 2 kts 131°
2026-04-27 18:47 39.25093 9.05954 17 ft 1 kts 230°
2026-04-27 18:47 39.25086 9.05944 17 ft 1 kts 229°
2026-04-27 18:47 39.25077 9.05931 17 ft 2 kts 228°
2026-04-27 18:48 39.25066 9.05914 17 ft 2 kts 229°
2026-04-27 18:48 39.25061 9.05907 17 ft 0 kts 229°
2026-04-27 19:02 39.25050 9.05892 17 ft 0 kts 226°